Location: Newark
(50.0336°N, 22.0047°E)
Time: 06:24:37
(UTC+00:00)

Envisat - Pass Details

Date: 01 February 2020
Orbit: 764 x 766 km, 98.1° (Epoch: 20 February)

Event Time Altitude Azimuth Distance (km) Brightness Sun altitude
Rises 05:09:26 0° 16° (NNE) 3,245 6.3 -9.4°
Reaches altitude 10° 05:11:46 10° 19° (NNE) 2,314 5.5 -9.0°
Maximum altitude 05:16:51 67° 102° (ESE) 831 3.5 -8.3°
Drops below altitude 10° 05:21:53 10° 185° (S) 2,296 5.7 -7.5°
Sets 05:24:12 0° 188° (S) 3,218 6.4 -7.1°
